N2QKV-13 Weather Reports


time (UTC)temp
F
wind
direction
speed
knots
gust
knots
rain 1hr
in
rain 24hr
in
rain mn
in
humidity
%
barometer
mb
20260504214004 66 151 6.1 12.2 0.00 0.00 0.00 61 1010.2
20260504213504 66 162 4.3 8.7 0.00 0.00 0.00 62 1010.1
20260504213004 66 177 4.3 8.7 0.00 0.00 0.00 61 1010.0
20260504212503 66 166 4.3 8.7 0.00 0.00 0.00 62 1010.1
20260504212004 66 169 4.3 10.4 0.00 0.00 0.00 62 1010.0
20260504211504 66 149 6.1 13.0 0.00 0.00 0.00 63 1010.0
20260504211004 66 157 4.3 11.3 0.00 0.00 0.00 65 1010.1
20260504210504 65 137 3.5 11.3 0.00 0.00 0.00 65 1010.0
20260504210004 65 176 5.2 15.6 0.00 0.00 0.00 65 1009.9
20260504205504 65 147 5.2 15.6 0.00 0.00 0.00 65 1009.9
20260504205003 65 150 7.8 13.9 0.00 0.00 0.00 66 1009.9
20260504204503 65 140 7.0 14.8 0.00 0.00 0.00 65 1010.0
20260504204004 65 164 6.1 13.0 0.00 0.00 0.00 63 1010.0
20260504203504 65 141 5.2 17.4 0.00 0.00 0.00 64 1009.9
20260504203004 65 157 6.1 13.0 0.00 0.00 0.00 64 1010.0
20260504202503 65 161 5.2 12.2 0.00 0.00 0.00 64 1010.0
20260504202004 65 145 7.8 14.8 0.00 0.00 0.00 63 1010.0
20260504201503 66 162 7.0 17.4 0.00 0.00 0.00 62 1010.0
20260504201004 66 159 4.3 13.9 0.00 0.00 0.00 60 1010.3
20260504200504 67 173 5.2 14.8 0.00 0.00 0.00 61 1010.1
20260504200003 66 165 6.1 13.0 0.00 0.00 0.00 60 1010.3
20260504195503 66 171 4.3 10.4 0.00 0.00 0.00 61 1010.2
20260504195004 67 169 7.8 17.4 0.00 0.00 0.00 61 1010.3
20260504194503 67 157 6.1 10.4 0.00 0.00 0.00 60 1010.3
20260504194003 67 156 6.1 13.0 0.00 0.00 0.00 59 1010.5
20260504193504 68 157 5.2 12.2 0.00 0.00 0.00 58 1010.4
20260504193004 68 140 6.1 18.2 0.00 0.00 0.00 58 1010.5
20260504192504 69 166 5.2 12.2 0.00 0.00 0.00 58 1010.5
20260504192004 68 158 5.2 10.4 0.00 0.00 0.00 61 1010.7
20260504191503 68 165 5.2 15.6 0.00 0.00 0.00 59 1010.6
20260504191004 69 159 7.0 13.0 0.00 0.00 0.00 60 1010.8
20260504190504 69 167 4.3 11.3 0.00 0.00 0.00 59 1010.8
20260504190004 69 191 4.3 10.4 0.00 0.00 0.00 58 1010.8
20260504185503 69 142 3.5 11.3 0.00 0.00 0.00 58 1010.8
20260504185004 70 150 4.3 12.2 0.00 0.00 0.00 58 1010.9
20260504184504 69 161 5.2 10.4 0.00 0.00 0.00 58 1011.0
20260504184004 69 175 4.3 13.0 0.00 0.00 0.00 57 1011.1
20260504183503 70 206 2.6 7.0 0.00 0.00 0.00 56 1011.3
20260504183003 71 138 4.3 12.2 0.00 0.00 0.00 53 1011.3
20260504182504 74 133 3.5 13.0 0.00 0.00 0.00 46 1011.4
20260504182004 73 186 2.6 11.3 0.00 0.00 0.00 44 1011.5
20260504181504 74 157 4.3 7.8 0.00 0.00 0.00 43 1011.5
20260504181003 74 221 4.3 10.4 0.00 0.00 0.00 33 1011.5
20260504180504 74 171 5.2 10.4 0.00 0.00 0.00 34 1011.5
20260504180003 74 166 6.1 11.3 0.00 0.00 0.00 33 1011.6
20260504175504 74 230 4.3 13.0 0.00 0.00 0.00 33 1011.6
20260504175003 74 226 5.2 11.3 0.00 0.00 0.00 32 1011.5
20260504174503 73 294 2.6 11.3 0.00 0.00 0.00 34 1011.7
20260504174003 74 217 3.5 11.3 0.00 0.00 0.00 33 1011.6
20260504173503 74 231 2.6 10.4 0.00 0.00 0.00 33 1011.7
20260504173004 73 274 2.6 11.3 0.00 0.00 0.00 34 1011.7
20260504172503 74 222 2.6 10.4 0.00 0.00 0.00 35 1011.8
20260504172004 74 214 2.6 11.3 0.00 0.00 0.00 33 1011.8
20260504171503 74 285 4.3 7.0 0.00 0.00 0.00 33 1011.9
20260504171004 74 241 1.7 7.0 0.00 0.00 0.00 34 1011.9
20260504170503 72 273 3.5 10.4 0.00 0.00 0.00 34 1012.0
20260504151004 69 189 4.3 13.0 0.00 0.00 0.00 42 1013.2
20260504150504 68 148 1.7 12.2 0.00 0.00 0.00 42 1013.3
20260504141003 66 207 2.6 10.4 0.00 0.00 0.00 41 1013.7
20260504140504 66 199 6.1 13.9 0.00 0.00 0.00 39 1013.6
20260504130504 62 233 2.6 7.0 0.00 0.00 0.00 50 1014.3
20260504110503 51 159 1.7 4.3 0.00 0.00 0.00 71 1015.3
20260504100503 49 267 1.7 4.3 0.00 0.00 0.00 69 1015.0
20260504082004 49 229 0.9 2.6 0.00 0.00 0.00 60 1014.7
20260504081504 49 237 0.9 2.6 0.00 0.00 0.00 60 1014.7
20260504081004 49 237 0.9 2.6 0.00 0.00 0.00 60 1014.7
20260504080503 49 241 0.0 1.7 0.00 0.00 0.00 60 1014.6
20260504050503 48 197 0.0 0.9 0.00 0.00 0.00 56 1014.0
20260504050004 48 199 0.0 1.7 0.00 0.00 0.00 55 1014.0
20260504045503 49 242 0.0 0.9 0.00 0.00 0.00 55 1013.8
20260504045003 49 237 0.0 1.7 0.00 0.00 0.00 54 1013.9
20260504044504 49 237 0.0 1.7 0.00 0.00 0.00 54 1013.8
20260504044004 49 237 0.0 2.6 0.00 0.00 0.00 54 1013.7
20260504043504 49 202 0.9 2.6 0.00 0.00 0.00 54 1013.8
20260504043004 49 235 0.0 2.6 0.00 0.00 0.00 53 1013.8
20260504042504 49 224 0.0 0.9 0.00 0.00 0.00 53 1013.6
20260504042003 50 225 0.0 1.7 0.00 0.00 0.00 53 1013.7
20260504041503 50 223 0.0 2.6 0.00 0.00 0.00 53 1013.6
20260504041003 50 242 0.0 2.6 0.00 0.00 0.00 52 1013.6
20260504040504 50 238 0.9 1.7 0.00 0.00 0.00 53 1013.6
20260504040004 50 242 0.0 1.7 0.00 0.00 0.00 53 1013.5
20260504035503 50 240 0.0 1.7 0.00 0.00 0.00 53 1013.5
20260504035004 50 204 0.9 2.6 0.00 0.00 0.00 53 1013.4
20260504034504 50 186 0.0 0.9 0.00 0.00 0.00 52 1013.5
20260504034003 50 186 0.0 1.7 0.00 0.00 0.00 52 1013.4
20260504033504 51 241 0.9 2.6 0.00 0.00 0.00 51 1013.3
20260504033004 51 248 0.9 2.6 0.00 0.00 0.00 51 1013.4
20260504032503 51 239 0.9 2.6 0.00 0.00 0.00 51 1013.3
20260504032004 51 213 0.0 0.9 0.00 0.00 0.00 51 1013.3
20260504031503 51 214 0.0 1.7 0.00 0.00 0.00 51 1013.3
20260504031003 51 208 0.0 4.3 0.00 0.00 0.00 51 1013.3
20260504030504 51 209 0.9 4.3 0.00 0.00 0.00 51 1013.2
20260504030003 51 211 0.0 2.6 0.00 0.00 0.00 51 1013.2
20260504025504 51 221 0.0 2.6 0.00 0.00 0.00 51 1013.2
20260504025003 51 233 0.0 5.2 0.00 0.00 0.00 51 1013.2
20260504024503 51 219 0.0 5.2 0.00 0.00 0.00 51 1013.2
20260504024003 51 205 0.0 0.9 0.00 0.00 0.00 52 1013.2
20260504023504 51 211 0.9 2.6 0.00 0.00 0.00 51 1013.2
20260504023003 51 255 0.9 1.7 0.00 0.00 0.00 52 1013.2
20260504022504 51 255 0.9 2.6 0.00 0.00 0.00 52 1013.2
20260504022003 50 203 0.9 4.3 0.00 0.00 0.00 52 1013.3
20260504021504 50 210 0.0 2.6 0.00 0.00 0.00 52 1013.2
20260504021003 50 202 0.0 1.7 0.00 0.00 0.00 52 1013.2
20260504020504 50 204 0.0 1.7 0.00 0.00 0.00 52 1013.2
20260504020004 50 205 0.0 1.7 0.00 0.00 0.00 53 1013.2
20260504015503 50 205 0.0 0.0 0.00 0.00 0.00 53 1013.2
20260504015004 51 205 0.0 0.0 0.00 0.00 0.00 53 1013.2
20260504014503 51 206 0.0 1.7 0.00 0.00 0.00 52 1013.2
20260504014003 51 207 0.9 2.6 0.00 0.00 0.00 51 1013.0
20260504013504 52 213 0.9 2.6 0.00 0.00 0.00 50 1013.1
20260504013003 52 245 0.0 0.9 0.00 0.00 0.00 49 1013.0
20260504012503 52 238 0.0 0.0 0.00 0.00 0.00 48 1012.9
20260504012004 53 237 0.0 0.0 0.00 0.00 0.00 48 1012.9
20260504011503 53 237 0.0 1.7 0.00 0.00 0.00 47 1012.8
20260504011004 53 243 0.0 0.9 0.00 0.00 0.00 47 1012.8
20260504010503 53 243 0.0 0.9 0.00 0.00 0.00 47 1012.7
20260504010003 53 243 0.9 2.6 0.00 0.00 0.00 46 1012.6
20260504005504 53 243 0.0 1.7 0.00 0.00 0.00 46 1012.6
20260504005004 53 243 0.0 0.0 0.00 0.00 0.00 46 1012.5
20260504004503 54 243 0.0 0.0 0.00 0.00 0.00 45 1012.5
20260504004004 54 243 0.0 0.0 0.00 0.00 0.00 44 1012.4
20260504003503 54 243 0.0 0.0 0.00 0.00 0.00 44 1012.3
20260504003004 54 243 0.0 0.9 0.00 0.00 0.00 43 1012.3
20260504002504 55 243 0.0 1.7 0.00 0.00 0.00 42 1012.3
20260504002004 55 243 0.0 0.9 0.00 0.00 0.00 41 1012.2
20260504001504 56 243 0.0 0.9 0.00 0.00 0.00 40 1012.2
20260504001003 56 243 0.0 0.9 0.00 0.00 0.00 39 1012.1
20260504000504 56 243 0.0 0.0 0.00 0.00 0.00 38 1012.0
20260504000004 57 243 0.9 1.7 0.00 0.00 0.00 37 1012.0
20260503235503 57 243 0.0 1.7 0.00 0.00 0.00 36 1011.9
20260503235003 57 243 0.0 1.7 0.00 0.00 0.00 36 1011.8
20260503234504 57 248 0.9 4.3 0.00 0.00 0.00 36 1011.7
20260503234003 58 250 1.7 2.6 0.00 0.00 0.00 36 1011.6
20260503233504 58 240 0.9 2.6 0.00 0.00 0.00 35 1011.6
20260503233003 58 213 1.7 4.3 0.00 0.00 0.00 34 1011.5
20260503232503 58 216 1.7 2.6 0.00 0.00 0.00 35 1011.7
20260503232004 58 238 2.6 5.2 0.00 0.00 0.00 34 1011.6
20260503231503 59 212 1.7 4.3 0.00 0.00 0.00 34 1011.6
20260503231004 59 234 2.6 6.1 0.00 0.00 0.00 33 1011.6
20260503230504 59 255 2.6 7.8 0.00 0.00 0.00 33 1011.5
20260503230003 59 237 2.6 6.1 0.00 0.00 0.00 32 1011.5
20260503225504 59 239 3.5 8.7 0.00 0.00 0.00 32 1011.5
20260503225004 60 252 1.7 6.1 0.00 0.00 0.00 32 1011.4
20260503224503 60 258 1.7 7.0 0.00 0.00 0.00 32 1011.4
20260503224004 60 276 2.6 10.4 0.00 0.00 0.00 31 1011.4
20260503223503 60 301 1.7 5.2 0.00 0.00 0.00 32 1011.4
20260503223004 60 259 1.7 6.1 0.00 0.00 0.00 32 1011.3
20260503222503 60 257 1.7 8.7 0.00 0.00 0.00 30 1011.4
20260503222003 60 285 3.5 10.4 0.00 0.00 0.00 31 1011.3
20260503221504 60 248 2.6 10.4 0.00 0.00 0.00 33 1011.3
20260503221003 60 283 4.3 12.2 0.00 0.00 0.00 31 1011.4
20260503220504 60 234 2.6 12.2 0.00 0.00 0.00 31 1011.5
20260503220004 61 266 3.5 11.3 0.00 0.00 0.00 31 1011.4
20260503215504 61 306 3.5 10.4 0.00 0.00 0.00 31 1011.3
20260503215003 61 212 1.7 6.1 0.00 0.00 0.00 33 1011.4
20260503214504 61 228 4.3 10.4 0.00 0.00 0.00 31 1011.2